Regional Weather Roundup
Issued by NWS

Home | Current Version | Previous Version | Graphics & Text | Print | Product List | Glossary Off
Versions: 1 2 3 4 5 6 7 8 9 10 11 12 13 14 15 16 17 18 19 20 21 22 23 24 25 26 27 28 29 30 31 32 33 34 35 36 37 38 39 40 41 42 43 44 45 46 47 48 49 50

000
ASUS43 KMKX 200611
RWRWI

WISCONSIN REGIONAL WEATHER ROUNDUP
NATIONAL WEATHER SERVICE MILWAUKEE/SULLIVAN WI
100 AM CDT SUN AUG 20 2017

NOTE: "FAIR" INDICATES FEW OR NO CLOUDS BELOW 12,000 FEET WITH NO
SIGNIFICANT WEATHER AND/OR OBSTRUCTIONS TO VISIBILITY.

WIZ001-002-006>008-014>016-023>028-200700-
NORTHWEST WISCONSIN

CITY           SKY/WX    TMP DP  RH WIND       PRES   REMARKS
SUPERIOR ARPT    N/A     57  57 100 SW3       29.87S
6HR MIN TEMP:  56; 6HR MAX TEMP:  77;

ASHLAND        PTCLDY    61  58  90 S6        29.91S
6HR MIN TEMP:  60; 6HR MAX TEMP:  76;

HAYWARD        CLEAR     55  54  96 CALM      29.93S
6HR MIN TEMP:  55; 6HR MAX TEMP:  76;

SIREN          CLEAR     62  60  94 CALM      29.91S
6HR MIN TEMP:  62; 6HR MAX TEMP:  76;

CUMBERLAND     CLEAR     59  55  88 CALM      29.93F
RICE LAKE      PTCLDY    58  58  97 CALM      29.94F FOG
6HR MIN TEMP:  58; 6HR MAX TEMP:  74;

CHETEK         CLEAR     59  59 100 E5        29.94S
6HR MIN TEMP:  59; 6HR MAX TEMP:  75;

LADYSMITH      CLEAR     61  59  94 CALM      29.97R
6HR MIN TEMP:  60; 6HR MAX TEMP:  74;

EAU CLAIRE     CLEAR     64  61  90 CALM      29.92S
6HR MIN TEMP:  63; 6HR MAX TEMP:  76;

MENOMONIE      CLEAR     62  62  97 E3        29.93F
6HR MIN TEMP:  62; 6HR MAX TEMP:  76;

NEW RICHMOND   CLEAR     62  61  97 S3        29.92F
6HR MIN TEMP:  61; 6HR MAX TEMP:  75;

OSCEOLA        CLEAR     63  63 100 CALM      29.94S
6HR MIN TEMP:  63; 6HR MAX TEMP:  76;

$$

WIZ003>005-009-010-017-018-200700-
NORTH CENTRAL WISCONSIN

CITY           SKY/WX    TMP DP  RH WIND       PRES   REMARKS
MANITOWISH WTR FOG       55  55 100 CALM      29.96S VSB 1/4
6HR MIN TEMP:  54; 6HR MAX TEMP:  73;

ARBOR VITAE    CLEAR     59  57  93 CALM      29.96S
6HR MIN TEMP:  59; 6HR MAX TEMP:  76;

WOODRUFF       CLEAR     59  57  93 CALM      29.96S
6HR MIN TEMP:  59; 6HR MAX TEMP:  76;

RHINELANDER    CLEAR     57  57 100 CALM      29.98R FOG
6HR MIN TEMP:  57; 6HR MAX TEMP:  74;

EAGLE RIVER    CLEAR     59  59 100 CALM      29.97R
6HR MIN TEMP:  58; 6HR MAX TEMP:  72;

LAND O LAKES     N/A     54  54 100 CALM      29.99R FOG
6HR MIN TEMP:  53; 6HR MAX TEMP:  73;

PHILLIPS       CLEAR     59  58  97 CALM      29.96S
6HR MIN TEMP:  59; 6HR MAX TEMP:  73;

TOMAHAWK         N/A     54  53  96 CALM      29.98R FOG
6HR MIN TEMP:  53; 6HR MAX TEMP:  73;

MEDFORD        CLEAR     58  56  94 S3        29.97S
6HR MIN TEMP:  57; 6HR MAX TEMP:  72;

MERRILL        CLEAR     54  54 100 CALM      29.98S
$$

WIZ029-030-035-036-043>047-200700-
CENTRAL WISCONSIN

CITY           SKY/WX    TMP DP  RH WIND       PRES   REMARKS
WAUSAU         CLEAR     60  59  96 SE3       29.96R
6HR MIN TEMP:  60; 6HR MAX TEMP:  75;

MOSINEE        CLEAR     59  57  94 CALM      29.99R
MARSHFIELD     CLEAR     61  58  90 SW5       29.97R
6HR MIN TEMP:  60; 6HR MAX TEMP:  74;

STEVENS POINT  CLEAR     55  55 100 CALM      29.98S FOG
6HR MIN TEMP:  55; 6HR MAX TEMP:  75;

WAUPACA        CLEAR     61  60  95 CALM      29.97S
6HR MIN TEMP:  61; 6HR MAX TEMP:  80;

WAUTOMA        CLEAR     58  57  97 CALM      29.98S
6HR MIN TEMP:  58; 6HR MAX TEMP:  78;

WISC RAPIDS    CLEAR     58  58 100 CALM      29.99R
6HR MIN TEMP:  58; 6HR MAX TEMP:  77;

CAMP DOUGLAS   CLEAR     55  55 100 E3        29.96F
6HR MIN TEMP:  53; 6HR MAX TEMP:  76; 6HR PCP: TRACE;

$$

WIZ011>013-019>022-031-037>040-048>050-200700-
NORTHEAST WISCONSIN

CITY           SKY/WX    TMP DP  RH WIND       PRES   REMARKS
ANTIGO         CLEAR     56  56  99 CALM      29.98S
6HR MIN TEMP:  56; 6HR MAX TEMP:  72;

SHAWANO        CLEAR     62  60  93 CALM      29.96R
6HR MIN TEMP:  62; 6HR MAX TEMP:  79;

OCONTO         CLEAR     59  57  94 CALM      29.95R
6HR MIN TEMP:  59; 6HR MAX TEMP:  76;

STURGEON BAY   CLEAR     65  61  87 SW5       29.96R
6HR MIN TEMP:  65; 6HR MAX TEMP:  75;

GREEN BAY      CLEAR     60  60 100 CALM      29.96R
6HR MIN TEMP:  59; 6HR MAX TEMP:  76;

MANITOWOC      CLEAR     66  60  81 W3        29.98R
6HR MIN TEMP:  66; 6HR MAX TEMP:  77;

APPLETON       CLEAR     64  57  77 SW8       29.96S
CLINTONVILLE   CLEAR     59  57  94 CALM      29.97R
OSHKOSH        CLEAR     65  59  81 SW5       29.97R
6HR MIN TEMP:  65; 6HR MAX TEMP:  77;

$$

WIZ032>034-041-042-053>061-200700-
SOUTHWEST WISCONSIN

CITY           SKY/WX    TMP DP  RH WIND       PRES   REMARKS
LA CROSSE      CLEAR     65  62  90 SE6       29.94S
6HR MIN TEMP:  65; 6HR MAX TEMP:  81;

SPARTA         CLEAR     54  54  99 CALM      29.97S
6HR MIN TEMP:  54; 6HR MAX TEMP:  76;

VIROQUA        CLEAR     65  62  90 CALM      29.98S
6HR MIN TEMP:  64; 6HR MAX TEMP:  75;

BOSCOBEL       PTCLDY    58  57  97 CALM      29.97F FOG
6HR MIN TEMP:  58; 6HR MAX TEMP:  80;

PRAIRIE DU CHI CLEAR     62  60  93 SE3       29.96F
6HR MIN TEMP:  62; 6HR MAX TEMP:  78;

PLATTEVILLE    CLEAR     64  62  92 SE6       29.99S
6HR MIN TEMP:  64; 6HR MAX TEMP:  76;

$$

WIZ056-057-062-063-064-067-068-200700-
SOUTH CENTRAL WISCONSIN

CITY           SKY/WX    TMP DP  RH WIND       PRES   REMARKS
REEDSBURG      CLEAR     59  59 100 CALM      29.98R
6HR MIN TEMP:  59; 6HR MAX TEMP:  77;

BARABOO/DELLS  CLEAR     61  58  91 CALM      29.99R
6HR MIN TEMP:  61; 6HR MAX TEMP:  76;

LONE ROCK      CLEAR     59  59 100 E3        29.98R FOG
6HR MIN TEMP:  59; 6HR MAX TEMP:  79;

MINERAL POINT  CLEAR     64  63  94 SE5       29.99F
MADISON        CLEAR     63  61  93 CALM      29.99R
6HR MIN TEMP:  63; 6HR MAX TEMP:  79;

MIDDLETON      CLEAR     61  61 100 CALM      30.00R
6HR MIN TEMP:  60; 6HR MAX TEMP:  79;

WATERTOWN      CLEAR     59  59 100 CALM      29.99R
6HR MIN TEMP:  59; 6HR MAX TEMP:  75;

MONROE         CLEAR     66  61  82 S6        30.00R
JANESVILLE     CLEAR     63  63 100 CALM      29.99S
$$

WIZ051-052-058>065-066-070>072-200700-
SOUTHEAST WISCONSIN

CITY           SKY/WX    TMP DP  RH WIND       PRES   REMARKS
MILWAUKEE      CLEAR     68  60  75 S5        29.99S
6HR MIN TEMP:  66; 6HR MAX TEMP:  80;

WAUKESHA       CLEAR     61  59  94 CALM      30.01R
MILWAUKEE/TIMM CLEAR     63  57  82 CALM      30.00S
RACINE         CLEAR     65  59  81 S6        30.01S
6HR MIN TEMP:  64; 6HR MAX TEMP:  74;

KENOSHA        CLEAR     63  56  78 S5        30.00S
6HR MIN TEMP:  62; 6HR MAX TEMP:  77;

FOND DU LAC    CLEAR     63  59  87 SW5       29.98R
6HR MIN TEMP:  63; 6HR MAX TEMP:  77;

SHEBOYGAN      CLEAR     62  61  96 S3        29.98R
6HR MIN TEMP:  61; 6HR MAX TEMP:  76; 6HR PCP: TRACE;

WEST BEND      CLEAR     61  61 100 CALM      30.00R FOG
JUNEAU         CLEAR     62  60  92 CALM      30.00S
6HR MIN TEMP:  62; 6HR MAX TEMP:  74;

$$

LSZ147-162-200700-
LAKE SUPERIOR

STATION/POSITION TIME  TEMP    WIND        PRES    WAVE
                       AIR SEA DIR/SP/G            HT/PER
                 (UTC) (F)     (DEG/KT/KT) (MB)    (FT/S)
W MID LAKE BUOY  0450   64 60  230/ 12/ 12 1010.9R   1/ 3
DEVILS ISLAND    0500   69     210/ 12/ 13 1011.4R
SAXON HARBOR     0430   66     180/  4/  8 1011.9R
$$

LMZ867-665-643>646-200700-
LAKE MICHIGAN

STATION/POSITION TIME  TEMP    WIND        PRES    WAVE
                       AIR SEA DIR/SP/G            HT/PER
                 (UTC) (F)     (DEG/KT/KT) (MB)    (FT/S)
S GREEN BAY BUOY 0600   71 71  230/  6/  8 1014.0R
N MID LAKE BUOY  0450   69 67  230/ 10/ 12 1013.4R   2/


USA.gov is the U.S. government's official web portal to all federal, state and local government web resources and services.